Location: Unspecified
(22.6800°N, 112.2000°E)
Time: 12:50:07
(UTC+08:00)

Transit 2A - Pass Details

Date: 10 August 2021
Orbit: 595 x 963 km, 66.7° (Epoch: 16 September)

Event Time Altitude Azimuth Distance (km) Brightness Sun altitude
Rises 04:44:26 0° 237° (WSW) 2,820 - -18.3°
Reaches altitude 10° 04:47:17 10° 257° (WSW) 1,927 - -17.7°
Exits shadow 04:50:05 17° 298° (WNW) 1,522 7.2 -17.2°
Maximum altitude 04:50:10 17° 300° (WNW) 1,522 7.2 -17.1°
Drops below altitude 10° 04:53:09 10° 342° (NNW) 1,988 8.2 -16.5°
Sets 04:56:09 0° 2° (N) 2,948 9.4 -15.9°
